Voltar ao catálogo

MIDAS 4 DEB

AtivoPO
NORAD 195·DEBRIS·🇺🇸 United States

Lançado Oct 21, 1961 de Vandenberg Space Force Base

Loading…

Próximas Passagens (próximas 24 horas)

TLE

AtualizadoSource: Space-Track

Época: Sep 7, 2026, 07:14 UTC

1 00195U 61028D   26250.30204951  .00000015  00000-0  84838-2 0  9990
2 00195  95.8488 221.4460 0122180   0.6942 359.4063  8.65620303 50135

Acompanhe MIDAS 4 DEB em tempo real com AllMySat

Download on the App Store